Retour au catalogue

QIANFAN-196

ActifCommunicationsPO
NORAD 69414·PAYLOAD·🇨🇳 China

Lancé Jun 5, 2026 depuis Wenchang Space Launch Site

Loading…

Prochains Passages (prochaines 24 heures)

TLE

FraisSource: Space-Track

Époque: Sep 14, 2026, 14:11 UTC

1 69414U 26125P   26257.59160061  .00000015  00000-0  45822-5 0  9992
2 69414  88.9905 270.9007 0001853  92.3619 267.7744 13.51035246 14032

Suivez QIANFAN-196 en temps réel avec AllMySat

Download on the App Store